Location: Puketoi
(40.5833°S, 176.0167°E)
Time: 13:57:56
(UTC+00:00)

Cosmos 1697 Rocket - Pass Details

Date: 08 February 2023
Orbit: 834 x 842 km, 71.0° (Epoch: 22 March)

Event Time Altitude Azimuth Distance (km) Brightness Sun altitude
Exits shadow 16:34:49 13° 283° (WNW) 2,282 4.3 -10.7°
Maximum altitude 16:38:44 24° 234° (SW) 1,669 4.0 -10.1°
Drops below altitude 10° 16:43:20 10° 180° (S) 2,482 5.5 -9.3°
Sets 16:46:16 0° 166° (SSE) 3,425 6.5 -8.8°
